This is the latest recevied weather packets stored in our database for station/object KB3FKJ. If no packets are shown the sender has not sent any weather packets the latest 10 day(s).
| Time | Temp. | Humidity | Pressure | Rain* | Wind** | Luminosity | Snow |
|---|---|---|---|---|---|---|---|
| 1778044416 | 18.33° C | 53% | 1007.4 hPa | 0 mm | - | 0 W/m² | - |
| 1778044114 | 18.33° C | 53% | 1007.4 hPa | 0 mm | - | 0 W/m² | - |
| 1778043811 | 18.33° C | 52% | 1007.6 hPa | 0 mm | - | 0 W/m² | - |
| 1778043508 | 18.33° C | 53% | 1007.5 hPa | 0 mm | - | 0 W/m² | - |
| 1778043205 | 18.33° C | 52% | 1007.4 hPa | 0 mm | - | 0 W/m² | - |
| 1778042901 | 18.33° C | 53% | 1007.6 hPa | 0 mm | - | 0 W/m² | - |
| 1778042599 | 18.89° C | 52% | 1007.5 hPa | 0 mm | - | 0 W/m² | - |
| 1778042296 | 18.89° C | 50% | 1007.7 hPa | 0 mm | - | 0 W/m² | - |
| 1778041994 | 18.89° C | 50% | 1007.6 hPa | 0 mm | - | 0 W/m² | - |
| 1778041692 | 18.33° C | 52% | 1007.7 hPa | 0 mm | - | 0 W/m² | - |
| 1778041390 | 17.78° C | 55% | 1007.7 hPa | 0 mm | - | 0 W/m² | - |
| 1778041089 | 16.67° C | 59% | 1007.6 hPa | 0 mm | - | 0 W/m² | - |
| 1778040785 | 16.67° C | 62% | 1007.4 hPa | 0 mm | - | 0 W/m² | - |
| 1778040482 | 16.11° C | 65% | 1007.5 hPa | 0 mm | - | 0 W/m² | - |
| 1778040180 | 15.56° C | 67% | 1007.5 hPa | 0 mm | - | 0 W/m² | - |
| 1778039876 | 15.56° C | 70% | 1007.4 hPa | 0 mm | - | 0 W/m² | - |
| 1778039573 | 15° C | 71% | 1007.6 hPa | 0 mm | - | 0 W/m² | - |
| 1778039270 | 15° C | 74% | 1007.5 hPa | 0 mm | - | 0 W/m² | - |
| 1778038968 | 15° C | 75% | 1007.4 hPa | 0 mm | - | 0 W/m² | - |
| 1778038664 | 15° C | 69% | 1007.3 hPa | 0 mm | - | 0 W/m² | - |
| 1778038361 | 15° C | 71% | 1007.4 hPa | 0 mm | - | 0 W/m² | - |
| 1778038058 | 15° C | 76% | 1007.3 hPa | 0 mm | - | 0 W/m² | - |
| 1778037755 | 15° C | 76% | 1007.3 hPa | 0 mm | - | 0 W/m² | - |
| 1778037452 | 15° C | 74% | 1007.5 hPa | 0 mm | - | 0 W/m² | - |
| 1778037149 | 15° C | 74% | 1007.2 hPa | 0 mm | - | 0 W/m² | - |
* Rain latest hour (hover to see other rain measurements)
** Current wind speed in m/s (hover to see current wind gust speed)